| time (UTC) | temp F | wind direction | speed knots | gust knots | rain 1hr in | rain 24hr in | rain mn in | humidity % | barometer mb |
| 20260510100522 | 50 | 217 | 0.0 | 0.9 | 0.00 | 0.23 | 0.00 | 99 | 995.0 |
| 20260510100031 | 50 | 217 | 0.0 | 0.9 | 0.00 | 0.23 | 0.00 | 99 | 995.0 |
| 20260510095520 | 50 | 229 | 0.0 | 0.0 | 0.00 | 0.23 | 0.00 | 99 | 995.0 |
| 20260510095030 | 50 | 229 | 0.0 | 0.9 | 0.00 | 0.23 | 0.00 | 99 | 995.0 |
| 20260510094520 | 50 | 229 | 0.0 | 1.7 | 0.00 | 0.23 | 0.00 | 99 | 995.0 |
| 20260510094046 | 50 | 229 | 0.0 | 1.7 | 0.00 | 0.23 | 0.00 | 99 | 994.9 |
| 20260510093529 | 50 | 117 | 0.0 | 0.0 | 0.00 | 0.23 | 0.00 | 99 | 994.5 |
| 20260510093035 | 50 | 117 | 0.0 | 0.0 | 0.00 | 0.23 | 0.00 | 99 | 994.5 |
| 20260510092545 | 50 | 117 | 0.0 | 0.9 | 0.00 | 0.23 | 0.00 | 99 | 994.3 |
| 20260510092026 | 51 | 117 | 0.0 | 2.6 | 0.00 | 0.23 | 0.00 | 99 | 994.3 |
| 20260510091536 | 51 | 230 | 0.9 | 2.6 | 0.00 | 0.23 | 0.00 | 99 | 994.4 |
| 20260510091046 | 50 | 233 | 0.0 | 1.7 | 0.00 | 0.23 | 0.00 | 99 | 994.5 |
| 20260510090528 | 50 | 82 | 0.0 | 0.9 | 0.00 | 0.23 | 0.00 | 99 | 994.3 |
| 20260510090038 | 50 | 303 | 0.0 | 0.9 | 0.00 | 0.23 | 0.00 | 99 | 994.3 |
| 20260510085539 | 50 | 303 | 0.0 | 0.9 | 0.00 | 0.23 | 0.00 | 99 | 994.3 |
| 20260510085029 | 51 | 303 | 0.0 | 0.9 | 0.00 | 0.23 | 0.00 | 99 | 994.3 |
| 20260510084540 | 51 | 288 | 0.0 | 0.9 | 0.00 | 0.23 | 0.00 | 99 | 994.3 |
| 20260510084020 | 51 | 340 | 0.0 | 0.9 | 0.00 | 0.23 | 0.00 | 99 | 994.3 |
| 20260510083532 | 51 | 226 | 0.0 | 0.9 | 0.00 | 0.23 | 0.00 | 99 | 994.2 |
| 20260510083041 | 51 | 226 | 0.0 | 0.0 | 0.00 | 0.23 | 0.00 | 99 | 994.2 |
| 20260510082523 | 51 | 226 | 0.0 | 0.9 | 0.00 | 0.23 | 0.00 | 99 | 994.5 |
| 20260510082033 | 51 | 226 | 0.0 | 0.9 | 0.00 | 0.23 | 0.00 | 99 | 994.5 |
| 20260510081534 | 51 | 226 | 0.0 | 0.9 | 0.00 | 0.23 | 0.00 | 99 | 994.5 |
| 20260510081024 | 51 | 226 | 0.0 | 0.9 | 0.00 | 0.23 | 0.00 | 99 | 994.2 |
| 20260510080532 | 51 | 205 | 0.0 | 0.9 | 0.00 | 0.23 | 0.00 | 99 | 994.2 |
| 20260510080027 | 51 | 247 | 0.0 | 0.9 | 0.00 | 0.23 | 0.00 | 99 | 994.5 |
| 20260510075534 | 51 | 239 | 0.0 | 0.9 | 0.00 | 0.23 | 0.00 | 99 | 994.2 |
| 20260510075044 | 51 | 134 | 0.0 | 1.7 | 0.00 | 0.23 | 0.00 | 99 | 993.9 |
| 20260510074525 | 51 | 266 | 0.0 | 0.9 | 0.00 | 0.23 | 0.00 | 99 | 993.9 |
| 20260510074035 | 51 | 266 | 0.9 | 0.9 | 0.00 | 0.23 | 0.00 | 99 | 993.8 |
| 20260510073547 | 51 | 127 | 0.0 | 0.9 | 0.00 | 0.23 | 0.00 | 99 | 993.5 |
| 20260510073026 | 51 | 132 | 0.0 | 1.7 | 0.00 | 0.23 | 0.00 | 99 | 994.3 |
| 20260510072537 | 51 | 135 | 0.9 | 1.7 | 0.00 | 0.23 | 0.00 | 99 | 994.4 |
| 20260510072048 | 51 | 122 | 0.0 | 1.7 | 0.00 | 0.23 | 0.00 | 99 | 994.4 |
| 20260510071529 | 51 | 266 | 0.0 | 0.0 | 0.00 | 0.23 | 0.00 | 99 | 994.7 |
| 20260510071040 | 51 | 266 | 0.0 | 0.0 | 0.00 | 0.23 | 0.00 | 98 | 994.8 |
| 20260510070523 | 51 | 265 | 0.0 | 0.9 | 0.00 | 0.23 | 0.00 | 98 | 994.7 |
| 20260510070032 | 51 | 243 | 0.0 | 0.0 | 0.00 | 0.23 | 0.00 | 99 | 994.6 |
| 20260510065540 | 51 | 243 | 0.0 | 0.0 | 0.00 | 0.23 | 0.00 | 99 | 994.8 |
| 20260510065021 | 51 | 243 | 0.0 | 0.9 | 0.00 | 0.23 | 0.00 | 99 | 994.9 |
| 20260510064530 | 51 | 243 | 0.0 | 0.9 | 0.00 | 0.23 | 0.00 | 99 | 994.9 |
| 20260510064040 | 51 | 243 | 0.0 | 1.7 | 0.00 | 0.23 | 0.00 | 99 | 995.0 |
| 20260510063537 | 51 | 237 | 0.0 | 2.6 | 0.00 | 0.23 | 0.00 | 99 | 995.0 |
| 20260510063023 | 51 | 171 | 0.0 | 1.7 | 0.00 | 0.23 | 0.00 | 99 | 995.1 |
| 20260510062534 | 51 | 211 | 0.0 | 1.7 | 0.00 | 0.23 | 0.00 | 99 | 995.3 |
| 20260510062021 | 51 | 214 | 0.0 | 1.7 | 0.00 | 0.23 | 0.00 | 99 | 995.0 |
| 20260510061522 | 51 | 236 | 0.0 | 1.7 | 0.00 | 0.23 | 0.00 | 99 | 994.9 |
| 20260510061033 | 51 | 250 | 0.0 | 0.9 | 0.00 | 0.23 | 0.00 | 99 | 994.7 |
| 20260510060525 | 51 | 250 | 0.0 | 1.7 | 0.00 | 0.23 | 0.00 | 99 | 994.8 |
| 20260510060032 | 51 | 250 | 0.0 | 1.7 | 0.00 | 0.23 | 0.00 | 99 | 994.9 |
| 20260510055542 | 51 | 265 | 0.0 | 0.9 | 0.00 | 0.23 | 0.00 | 99 | 994.9 |
| 20260510055023 | 50 | 265 | 0.0 | 0.9 | 0.00 | 0.23 | 0.00 | 99 | 994.8 |
| 20260510054531 | 50 | 265 | 0.0 | 0.9 | 0.00 | 0.23 | 0.00 | 99 | 994.7 |
| 20260510054033 | 50 | 108 | 0.0 | 0.9 | 0.00 | 0.23 | 0.00 | 99 | 994.6 |
| 20260510053524 | 50 | 108 | 0.0 | 0.0 | 0.00 | 0.23 | 0.00 | 98 | 994.6 |
| 20260510053030 | 50 | 108 | 0.0 | 0.0 | 0.00 | 0.23 | 0.00 | 98 | 994.5 |
| 20260510052520 | 50 | 108 | 0.0 | 0.0 | 0.00 | 0.23 | 0.00 | 98 | 994.4 |
| 20260510052020 | 50 | 108 | 0.0 | 0.0 | 0.00 | 0.23 | 0.00 | 98 | 994.4 |
| 20260510051530 | 50 | 108 | 0.0 | 0.0 | 0.00 | 0.23 | 0.00 | 98 | 994.5 |
| 20260510051041 | 50 | 108 | 0.0 | 0.0 | 0.00 | 0.23 | 0.00 | 98 | 994.5 |
| 20260510050524 | 50 | 108 | 0.0 | 0.0 | 0.00 | 0.23 | 0.00 | 98 | 994.4 |
| 20260510050034 | 50 | 108 | 0.0 | 0.9 | 0.00 | 0.23 | 0.00 | 98 | 994.3 |
| 20260510045545 | 50 | 108 | 0.0 | 0.9 | 0.00 | 0.23 | 0.00 | 98 | 994.5 |
| 20260510045022 | 50 | 108 | 0.0 | 0.9 | 0.00 | 0.23 | 0.00 | 98 | 994.7 |
| 20260510044533 | 50 | 108 | 0.0 | 0.0 | 0.00 | 0.23 | 0.00 | 98 | 994.5 |
| 20260510044043 | 50 | 108 | 0.0 | 0.0 | 0.00 | 0.23 | 0.00 | 98 | 994.5 |
| 20260510043526 | 50 | 108 | 0.0 | 0.9 | 0.00 | 0.23 | 0.00 | 98 | 994.5 |
| 20260510043036 | 50 | 108 | 0.0 | 0.9 | 0.00 | 0.23 | 0.00 | 98 | 994.6 |
| 20260510042546 | 50 | 108 | 0.0 | 0.0 | 0.00 | 0.23 | 0.00 | 98 | 994.7 |
| 20260510042026 | 50 | 108 | 0.0 | 0.9 | 0.00 | 0.23 | 0.00 | 98 | 994.7 |
| 20260510041531 | 50 | 108 | 0.0 | 0.9 | 0.00 | 0.23 | 0.00 | 98 | 994.5 |
| 20260510041033 | 50 | 108 | 0.0 | 0.9 | 0.00 | 0.23 | 0.00 | 98 | 994.4 |
| 20260510040525 | 50 | 108 | 0.0 | 0.9 | 0.00 | 0.23 | 0.00 | 98 | 994.3 |
| 20260510040032 | 50 | 108 | 0.0 | 0.9 | 0.00 | 0.23 | 0.23 | 98 | 994.4 |
| 20260510035532 | 50 | 108 | 0.0 | 0.9 | 0.00 | 0.23 | 0.23 | 98 | 994.5 |
| 20260510035021 | 50 | 108 | 0.0 | 0.9 | 0.00 | 0.23 | 0.23 | 98 | 994.5 |
| 20260510034532 | 49 | 276 | 0.0 | 0.0 | 0.00 | 0.23 | 0.23 | 98 | 994.4 |
| 20260510034033 | 49 | 276 | 0.0 | 0.0 | 0.00 | 0.23 | 0.23 | 98 | 994.5 |
| 20260510033525 | 49 | 276 | 0.0 | 0.0 | 0.00 | 0.23 | 0.23 | 98 | 994.4 |
| 20260510033023 | 49 | 276 | 0.0 | 0.0 | 0.00 | 0.23 | 0.23 | 98 | 994.4 |
| 20260510032533 | 49 | 276 | 0.0 | 0.0 | 0.00 | 0.23 | 0.23 | 98 | 994.4 |
| 20260510032019 | 49 | 276 | 0.0 | 0.0 | 0.00 | 0.23 | 0.23 | 98 | 994.4 |
| 20260510031520 | 49 | 276 | 0.0 | 0.0 | 0.00 | 0.23 | 0.23 | 98 | 994.5 |
| 20260510031030 | 49 | 276 | 0.0 | 0.0 | 0.00 | 0.23 | 0.23 | 98 | 994.7 |
| 20260510030542 | 49 | 276 | 0.0 | 0.0 | 0.00 | 0.23 | 0.23 | 98 | 994.7 |
| 20260510030021 | 49 | 276 | 0.0 | 0.0 | 0.00 | 0.23 | 0.23 | 98 | 994.7 |
| 20260510025531 | 49 | 276 | 0.0 | 0.0 | 0.00 | 0.23 | 0.23 | 98 | 994.5 |
| 20260510025041 | 49 | 276 | 0.0 | 0.0 | 0.00 | 0.23 | 0.23 | 98 | 994.6 |
| 20260510024535 | 49 | 276 | 0.0 | 0.0 | 0.00 | 0.23 | 0.23 | 98 | 994.7 |
| 20260510024025 | 49 | 276 | 0.0 | 0.0 | 0.00 | 0.23 | 0.23 | 98 | 994.7 |
| 20260510023537 | 49 | 276 | 0.0 | 0.0 | 0.00 | 0.23 | 0.23 | 98 | 994.6 |
| 20260510023036 | 49 | 276 | 0.0 | 0.0 | 0.00 | 0.23 | 0.23 | 98 | 994.6 |
| 20260510022526 | 49 | 276 | 0.0 | 0.0 | 0.00 | 0.23 | 0.23 | 98 | 994.7 |
| 20260510022028 | 49 | 276 | 0.0 | 0.0 | 0.00 | 0.23 | 0.23 | 98 | 994.5 |
| 20260510021536 | 49 | 276 | 0.0 | 0.0 | 0.00 | 0.23 | 0.23 | 98 | 994.6 |
| 20260510021027 | 49 | 276 | 0.0 | 0.0 | 0.00 | 0.23 | 0.23 | 98 | 994.5 |
| 20260510020527 | 49 | 276 | 0.0 | 0.0 | 0.00 | 0.23 | 0.23 | 98 | 994.6 |
| 20260510020039 | 49 | 276 | 0.0 | 0.0 | 0.00 | 0.23 | 0.23 | 98 | 994.8 |
| 20260510015529 | 49 | 276 | 0.0 | 0.0 | 0.00 | 0.23 | 0.23 | 98 | 994.8 |
| 20260510015029 | 49 | 276 | 0.0 | 0.0 | 0.00 | 0.23 | 0.23 | 98 | 994.6 |
| 20260510014540 | 49 | 276 | 0.0 | 0.0 | 0.00 | 0.23 | 0.23 | 98 | 994.6 |
| 20260510014020 | 49 | 276 | 0.0 | 0.0 | 0.00 | 0.23 | 0.23 | 98 | 994.5 |
| 20260510013532 | 49 | 276 | 0.0 | 0.0 | 0.00 | 0.23 | 0.23 | 98 | 994.6 |
| 20260510013020 | 49 | 276 | 0.0 | 0.0 | 0.00 | 0.23 | 0.23 | 98 | 994.6 |
| 20260510012521 | 49 | 276 | 0.0 | 0.0 | 0.00 | 0.23 | 0.23 | 98 | 994.7 |
| 20260510012022 | 49 | 276 | 0.0 | 0.0 | 0.00 | 0.23 | 0.23 | 98 | 994.6 |
| 20260510011532 | 49 | 276 | 0.0 | 0.0 | 0.00 | 0.23 | 0.23 | 98 | 994.6 |
| 20260510011038 | 49 | 276 | 0.0 | 0.0 | 0.00 | 0.23 | 0.23 | 98 | 994.5 |
| 20260510010539 | 49 | 276 | 0.0 | 0.0 | 0.00 | 0.23 | 0.23 | 98 | 994.7 |
| 20260510010027 | 49 | 276 | 0.0 | 0.0 | 0.00 | 0.23 | 0.23 | 98 | 994.7 |
| 20260510005526 | 49 | 276 | 0.0 | 0.0 | 0.00 | 0.23 | 0.23 | 98 | 994.6 |
| 20260510005038 | 49 | 276 | 0.0 | 0.0 | 0.00 | 0.23 | 0.23 | 98 | 994.7 |
| 20260510004525 | 49 | 276 | 0.0 | 0.0 | 0.00 | 0.23 | 0.23 | 98 | 994.7 |
| 20260510004025 | 49 | 276 | 0.0 | 0.0 | 0.00 | 0.23 | 0.23 | 98 | 994.7 |
| 20260510003537 | 49 | 276 | 0.0 | 0.0 | 0.00 | 0.23 | 0.23 | 98 | 994.7 |
| 20260510003025 | 49 | 276 | 0.0 | 0.0 | 0.00 | 0.23 | 0.23 | 98 | 994.6 |
| 20260510002525 | 49 | 276 | 0.0 | 0.0 | 0.00 | 0.23 | 0.23 | 98 | 994.5 |
| 20260510002033 | 49 | 276 | 0.0 | 0.0 | 0.00 | 0.23 | 0.23 | 97 | 994.4 |
| 20260510001543 | 50 | 276 | 0.0 | 0.0 | 0.00 | 0.23 | 0.23 | 97 | 994.3 |
| 20260510001023 | 50 | 276 | 0.0 | 0.0 | 0.00 | 0.23 | 0.23 | 97 | 994.2 |
| 20260510000535 | 50 | 276 | 0.0 | 0.0 | 0.00 | 0.23 | 0.23 | 97 | 994.2 |
| 20260510000044 | 50 | 276 | 0.0 | 0.0 | 0.00 | 0.23 | 0.23 | 97 | 994.1 |
| 20260509235525 | 50 | 276 | 0.0 | 0.0 | 0.00 | 0.23 | 0.23 | 97 | 994.1 |
| 20260509235035 | 50 | 276 | 0.0 | 0.0 | 0.00 | 0.23 | 0.23 | 97 | 994.2 |
| 20260509234545 | 50 | 276 | 0.0 | 0.0 | 0.01 | 0.23 | 0.23 | 97 | 994.2 |
| 20260509234026 | 50 | 276 | 0.0 | 0.0 | 0.01 | 0.23 | 0.23 | 97 | 994.2 |
| 20260509233533 | 50 | 276 | 0.0 | 0.0 | 0.01 | 0.23 | 0.23 | 97 | 994.1 |
| 20260509233032 | 50 | 276 | 0.0 | 0.0 | 0.01 | 0.23 | 0.23 | 97 | 994.1 |
| 20260509232522 | 50 | 276 | 0.0 | 0.0 | 0.01 | 0.23 | 0.23 | 97 | 994.0 |
| 20260509232032 | 50 | 276 | 0.0 | 0.0 | 0.01 | 0.23 | 0.23 | 97 | 993.9 |
| 20260509231534 | 50 | 276 | 0.0 | 0.0 | 0.01 | 0.23 | 0.23 | 97 | 993.9 |
| 20260509231024 | 50 | 276 | 0.0 | 0.0 | 0.01 | 0.23 | 0.23 | 97 | 993.8 |
| 20260509230536 | 50 | 276 | 0.0 | 0.0 | 0.01 | 0.23 | 0.23 | 97 | 993.8 |
| 20260509230035 | 50 | 276 | 0.0 | 0.0 | 0.01 | 0.23 | 0.23 | 97 | 993.8 |
| 20260509225524 | 50 | 276 | 0.0 | 0.0 | 0.01 | 0.23 | 0.23 | 97 | 993.8 |
| 20260509225025 | 50 | 276 | 0.0 | 0.0 | 0.01 | 0.23 | 0.23 | 97 | 993.9 |
| 20260509224536 | 50 | 276 | 0.0 | 0.0 | 0.00 | 0.22 | 0.22 | 97 | 993.9 |
| 20260509224025 | 50 | 276 | 0.0 | 0.0 | 0.00 | 0.22 | 0.22 | 97 | 993.9 |
| 20260509223528 | 51 | 276 | 0.0 | 0.0 | 0.01 | 0.22 | 0.22 | 97 | 993.9 |
| 20260509223036 | 50 | 276 | 0.0 | 0.0 | 0.01 | 0.22 | 0.22 | 97 | 993.8 |
| 20260509222546 | 50 | 276 | 0.0 | 0.0 | 0.01 | 0.22 | 0.22 | 97 | 993.8 |
| 20260509222027 | 50 | 276 | 0.0 | 0.0 | 0.01 | 0.22 | 0.22 | 97 | 993.9 |
| 20260509221537 | 50 | 276 | 0.0 | 0.0 | 0.01 | 0.22 | 0.22 | 97 | 993.9 |
| 20260509221046 | 50 | 276 | 0.0 | 0.0 | 0.01 | 0.22 | 0.22 | 97 | 993.9 |
| 20260509220530 | 50 | 276 | 0.0 | 0.0 | 0.01 | 0.22 | 0.22 | 97 | 994.0 |
| 20260509220031 | 50 | 273 | 0.0 | 0.0 | 0.01 | 0.22 | 0.22 | 97 | 994.1 |
| 20260509215541 | 50 | 272 | 0.0 | 0.0 | 0.01 | 0.22 | 0.22 | 97 | 994.2 |
| 20260509214532 | 50 | 273 | 0.0 | 0.0 | 0.01 | 0.22 | 0.22 | 97 | 994.3 |
| 20260509214034 | 50 | 273 | 0.0 | 0.0 | 0.01 | 0.22 | 0.22 | 97 | 994.4 |
| 20260509213526 | 50 | 273 | 0.0 | 0.0 | 0.00 | 0.21 | 0.21 | 97 | 994.5 |
| 20260509213036 | 50 | 273 | 0.0 | 0.0 | 0.00 | 0.21 | 0.21 | 97 | 994.6 |
| 20260509212536 | 50 | 273 | 0.0 | 0.0 | 0.00 | 0.21 | 0.21 | 97 | 994.6 |
| 20260509212026 | 50 | 273 | 0.0 | 0.0 | 0.00 | 0.21 | 0.21 | 97 | 994.6 |
| 20260509211526 | 50 | 273 | 0.0 | 0.0 | 0.00 | 0.21 | 0.21 | 97 | 994.6 |
| 20260509211037 | 49 | 273 | 0.0 | 0.0 | 0.00 | 0.21 | 0.21 | 97 | 994.6 |
| 20260509210524 | 49 | 273 | 0.0 | 0.0 | 0.00 | 0.21 | 0.21 | 97 | 994.7 |
| 20260509210023 | 49 | 273 | 0.0 | 0.0 | 0.00 | 0.21 | 0.21 | 97 | 994.7 |
| 20260509205533 | 49 | 273 | 0.0 | 0.0 | 0.00 | 0.21 | 0.21 | 97 | 994.8 |
| 20260509205023 | 49 | 273 | 0.0 | 0.0 | 0.00 | 0.21 | 0.21 | 97 | 994.8 |
| 20260509204524 | 49 | 273 | 0.0 | 0.0 | 0.00 | 0.21 | 0.21 | 97 | 994.9 |
| 20260509204035 | 49 | 273 | 0.0 | 0.0 | 0.00 | 0.21 | 0.21 | 97 | 994.9 |
| 20260509203527 | 49 | 273 | 0.0 | 0.0 | 0.00 | 0.21 | 0.21 | 97 | 995.0 |
| 20260509203025 | 49 | 273 | 0.0 | 0.0 | 0.00 | 0.21 | 0.21 | 97 | 995.1 |
| 20260509202531 | 49 | 273 | 0.0 | 0.0 | 0.00 | 0.21 | 0.21 | 96 | 995.2 |
| 20260509202042 | 49 | 273 | 0.0 | 0.0 | 0.00 | 0.21 | 0.21 | 96 | 995.2 |
| 20260509201522 | 49 | 273 | 0.0 | 0.0 | 0.00 | 0.21 | 0.21 | 96 | 995.3 |
| 20260509201031 | 49 | 273 | 0.0 | 0.0 | 0.00 | 0.21 | 0.21 | 96 | 995.3 |
| 20260509200543 | 49 | 273 | 0.0 | 0.0 | 0.00 | 0.21 | 0.21 | 96 | 995.4 |
| 20260509200022 | 49 | 273 | 0.0 | 0.0 | 0.00 | 0.21 | 0.21 | 96 | 995.3 |
| 20260509195533 | 49 | 273 | 0.0 | 0.0 | 0.00 | 0.21 | 0.21 | 96 | 995.5 |
| 20260509195044 | 49 | 273 | 0.0 | 0.0 | 0.00 | 0.21 | 0.21 | 96 | 995.4 |
| 20260509194523 | 49 | 273 | 0.0 | 0.0 | 0.00 | 0.21 | 0.21 | 96 | 995.4 |
| 20260509194033 | 49 | 273 | 0.0 | 0.0 | 0.00 | 0.21 | 0.21 | 96 | 995.5 |
| 20260509193536 | 49 | 273 | 0.0 | 0.0 | 0.00 | 0.21 | 0.21 | 96 | 995.5 |
| 20260509193024 | 49 | 273 | 0.0 | 0.0 | 0.00 | 0.21 | 0.21 | 96 | 995.5 |
| 20260509192534 | 49 | 273 | 0.0 | 0.0 | 0.00 | 0.21 | 0.21 | 96 | 995.5 |
| 20260509192034 | 49 | 273 | 0.0 | 0.0 | 0.00 | 0.21 | 0.21 | 96 | 995.6 |
| 20260509191522 | 49 | 273 | 0.0 | 0.0 | 0.00 | 0.21 | 0.21 | 96 | 995.6 |
| 20260509191022 | 49 | 273 | 0.0 | 0.0 | 0.00 | 0.21 | 0.21 | 96 | 995.6 |
| 20260509190533 | 49 | 273 | 0.0 | 0.0 | 0.00 | 0.21 | 0.21 | 96 | 995.6 |
| 20260509190039 | 49 | 273 | 0.0 | 0.0 | 0.00 | 0.21 | 0.21 | 96 | 995.7 |
| 20260509185542 | 49 | 273 | 0.0 | 0.0 | 0.00 | 0.21 | 0.21 | 96 | 995.7 |
| 20260509185049 | 49 | 273 | 0.0 | 0.0 | 0.00 | 0.21 | 0.21 | 95 | 995.8 |
| 20260509184557 | 49 | 273 | 0.0 | 0.0 | 0.00 | 0.21 | 0.21 | 95 | 995.8 |
| 20260509184044 | 49 | 273 | 0.0 | 0.0 | 0.00 | 0.21 | 0.21 | 96 | 995.8 |
| 20260509183554 | 49 | 273 | 0.0 | 0.0 | 0.00 | 0.21 | 0.21 | 96 | 995.8 |
| 20260509183059 | 49 | 273 | 0.0 | 0.0 | 0.00 | 0.21 | 0.21 | 96 | 995.9 |
| 20260509182547 | 49 | 273 | 0.0 | 0.0 | 0.00 | 0.21 | 0.21 | 96 | 995.9 |
| 20260509182053 | 49 | 273 | 0.0 | 0.0 | 0.00 | 0.21 | 0.21 | 96 | 995.9 |
| 20260509181600 | 48 | 273 | 0.0 | 0.0 | 0.00 | 0.21 | 0.21 | 96 | 995.9 |
| 20260509181048 | 48 | 273 | 0.0 | 0.0 | 0.00 | 0.21 | 0.21 | 95 | 996.0 |
| 20260509180600 | 48 | 273 | 0.0 | 0.0 | 0.00 | 0.21 | 0.21 | 96 | 996.0 |
| 20260509180108 | 48 | 273 | 0.0 | 0.0 | 0.01 | 0.21 | 0.21 | 96 | 995.9 |
| 20260509175600 | 48 | 273 | 0.0 | 0.0 | 0.01 | 0.21 | 0.21 | 96 | 996.0 |
| 20260509175020 | 48 | 273 | 0.0 | 0.0 | 0.01 | 0.21 | 0.21 | 96 | 996.0 |
| 20260509174531 | 48 | 273 | 0.0 | 0.0 | 0.01 | 0.21 | 0.21 | 95 | 996.1 |
| 20260509174042 | 48 | 273 | 0.0 | 0.0 | 0.01 | 0.21 | 0.21 | 95 | 996.1 |
| 20260509173523 | 48 | 273 | 0.0 | 0.0 | 0.01 | 0.21 | 0.21 | 95 | 996.1 |
| 20260509173031 | 48 | 273 | 0.0 | 0.0 | 0.02 | 0.21 | 0.21 | 95 | 996.2 |
| 20260509172532 | 48 | 273 | 0.0 | 0.0 | 0.02 | 0.21 | 0.21 | 95 | 996.3 |
| 20260509172021 | 48 | 273 | 0.0 | 0.0 | 0.02 | 0.21 | 0.21 | 96 | 996.3 |
| 20260509171531 | 48 | 273 | 0.0 | 0.0 | 0.03 | 0.21 | 0.21 | 96 | 996.3 |
| 20260509171028 | 47 | 273 | 0.0 | 0.0 | 0.03 | 0.21 | 0.21 | 95 | 996.4 |
| 20260509170539 | 47 | 273 | 0.0 | 0.0 | 0.03 | 0.20 | 0.20 | 95 | 996.5 |
| 20260509170047 | 47 | 273 | 0.0 | 0.0 | 0.03 | 0.20 | 0.20 | 95 | 996.6 |
| 20260509165527 | 47 | 273 | 0.0 | 0.0 | 0.04 | 0.20 | 0.20 | 95 | 996.6 |
| 20260509165039 | 47 | 273 | 0.0 | 0.0 | 0.05 | 0.20 | 0.20 | 95 | 996.7 |
| 20260509164537 | 47 | 273 | 0.0 | 0.0 | 0.06 | 0.20 | 0.20 | 95 | 996.8 |
| 20260509163529 | 46 | 273 | 0.0 | 0.0 | 0.07 | 0.20 | 0.20 | 95 | 996.8 |
| 20260509163039 | 46 | 273 | 0.0 | 0.0 | 0.07 | 0.19 | 0.19 | 95 | 996.9 |
| 20260509162538 | 46 | 273 | 0.0 | 0.0 | 0.08 | 0.19 | 0.19 | 94 | 997.0 |
| 20260509162027 | 46 | 273 | 0.0 | 0.0 | 0.09 | 0.19 | 0.19 | 94 | 997.1 |
| 20260509161538 | 46 | 273 | 0.0 | 0.0 | 0.09 | 0.18 | 0.18 | 94 | 997.2 |
| 20260509161038 | 46 | 273 | 0.0 | 0.0 | 0.09 | 0.18 | 0.18 | 94 | 997.2 |
| 20260509160529 | 46 | 273 | 0.0 | 0.0 | 0.09 | 0.17 | 0.17 | 94 | 997.3 |
| 20260509160028 | 46 | 273 | 0.0 | 0.0 | 0.09 | 0.16 | 0.16 | 93 | 997.4 |
| 20260509155539 | 46 | 273 | 0.0 | 0.0 | 0.09 | 0.16 | 0.16 | 93 | 997.4 |
| 20260509155028 | 46 | 273 | 0.0 | 0.9 | 0.09 | 0.15 | 0.15 | 93 | 997.4 |
| 20260509154529 | 46 | 273 | 0.0 | 0.9 | 0.08 | 0.14 | 0.14 | 92 | 997.5 |
| 20260509154036 | 46 | 273 | 0.0 | 0.0 | 0.09 | 0.14 | 0.14 | 92 | 997.5 |
| 20260509153547 | 46 | 273 | 0.0 | 0.0 | 0.08 | 0.13 | 0.13 | 92 | 997.6 |
| 20260509153026 | 46 | 273 | 0.0 | 0.0 | 0.07 | 0.12 | 0.12 | 91 | 997.7 |
| 20260509152536 | 46 | 273 | 0.0 | 0.0 | 0.06 | 0.11 | 0.11 | 92 | 997.7 |
| 20260509152046 | 46 | 273 | 0.0 | 0.0 | 0.06 | 0.10 | 0.10 | 92 | 997.8 |
| 20260509151526 | 46 | 273 | 0.0 | 0.0 | 0.05 | 0.09 | 0.09 | 91 | 997.8 |
| 20260509151036 | 46 | 273 | 0.0 | 0.0 | 0.05 | 0.08 | 0.08 | 91 | 997.8 |
| 20260509150547 | 46 | 273 | 0.0 | 0.0 | 0.05 | 0.08 | 0.08 | 91 | 997.8 |
| 20260509150026 | 46 | 273 | 0.0 | 0.9 | 0.04 | 0.07 | 0.07 | 91 | 997.8 |
| 20260509145535 | 46 | 273 | 0.0 | 0.9 | 0.05 | 0.07 | 0.07 | 91 | 997.8 |
| 20260509145043 | 46 | 273 | 0.0 | 0.0 | 0.04 | 0.06 | 0.06 | 91 | 997.8 |
| 20260509144551 | 46 | 273 | 0.0 | 0.0 | 0.05 | 0.06 | 0.06 | 91 | 997.8 |
| 20260509144059 | 46 | 273 | 0.0 | 0.0 | 0.04 | 0.05 | 0.05 | 90 | 997.8 |
| 20260509143657 | 46 | 273 | 0.0 | 0.0 | 0.05 | 0.05 | 0.05 | 90 | 997.8 |
| 20260509143035 | 45 | 273 | 0.0 | 0.0 | 0.05 | 0.05 | 0.05 | 89 | 997.8 |
| 20260509142525 | 46 | 273 | 0.0 | 0.9 | 0.04 | 0.04 | 0.04 | 88 | 997.8 |
| 20260509142026 | 46 | 273 | 0.0 | 0.9 | 0.04 | 0.04 | 0.04 | 87 | 997.9 |
| 20260509141537 | 46 | 273 | 0.0 | 0.9 | 0.04 | 0.04 | 0.04 | 87 | 997.9 |
| 20260509141027 | 46 | 273 | 0.0 | 0.0 | 0.03 | 0.03 | 0.03 | 88 | 997.9 |
| 20260509140529 | 46 | 273 | 0.0 | 0.0 | 0.03 | 0.03 | 0.03 | 89 | 997.8 |
| 20260509140038 | 46 | 273 | 0.0 | 0.0 | 0.03 | 0.03 | 0.03 | 88 | 997.8 |
| 20260509135554 | 46 | 273 | 0.0 | 0.0 | 0.02 | 0.02 | 0.02 | 88 | 997.8 |
| 20260509135024 | 46 | 273 | 0.0 | 0.0 | 0.02 | 0.02 | 0.02 | 87 | 997.9 |
| 20260509134521 | 46 | 273 | 0.0 | 0.0 | 0.01 | 0.01 | 0.01 | 87 | 997.8 |
| 20260509134031 | 46 | 273 | 0.0 | 0.0 | 0.01 | 0.01 | 0.01 | 87 | 997.9 |
| 20260509133533 | 46 | 273 | 0.0 | 0.0 | 0.00 | 0.00 | 0.00 | 86 | 997.9 |
| 20260509133039 | 46 | 273 | 0.0 | 0.0 | 0.00 | 0.00 | 0.00 | 86 | 997.8 |
| 20260509132539 | 46 | 273 | 0.0 | 0.0 | 0.00 | 0.00 | 0.00 | 85 | 997.8 |
| 20260509132029 | 46 | 272 | 0.0 | 0.0 | 0.00 | 0.00 | 0.00 | 84 | 997.8 |
| 20260509131541 | 46 | 273 | 0.0 | 0.0 | 0.00 | 0.00 | 0.00 | 83 | 997.9 |
| 20260509131020 | 45 | 273 | 0.0 | 0.0 | 0.00 | 0.00 | 0.00 | 83 | 997.9 |
| 20260509130532 | 45 | 273 | 0.0 | 0.0 | 0.00 | 0.00 | 0.00 | 84 | 997.8 |
| 20260509130031 | 45 | 273 | 0.0 | 0.0 | 0.00 | 0.00 | 0.00 | 85 | 997.8 |
| 20260509125521 | 45 | 273 | 0.0 | 0.0 | 0.00 | 0.00 | 0.00 | 88 | 997.7 |
| 20260509125031 | 45 | 273 | 0.0 | 0.0 | 0.00 | 0.00 | 0.00 | 89 | 997.7 |
| 20260509124532 | 44 | 273 | 0.0 | 0.0 | 0.00 | 0.00 | 0.00 | 88 | 997.8 |
| 20260509124021 | 44 | 273 | 0.0 | 0.0 | 0.00 | 0.00 | 0.00 | 90 | 997.9 |
| 20260509123525 | 44 | 273 | 0.0 | 0.0 | 0.00 | 0.00 | 0.00 | 92 | 997.9 |
| 20260509123033 | 44 | 273 | 0.0 | 0.0 | 0.00 | 0.00 | 0.00 | 93 | 997.9 |
| 20260509122522 | 43 | 273 | 0.0 | 0.0 | 0.00 | 0.00 | 0.00 | 94 | 998.0 |
| 20260509122023 | 43 | 273 | 0.0 | 0.0 | 0.00 | 0.00 | 0.00 | 95 | 998.0 |
| 20260509121534 | 42 | 273 | 0.0 | 0.0 | 0.00 | 0.00 | 0.00 | 96 | 998.0 |
| 20260509121025 | 42 | 273 | 0.0 | 0.0 | 0.00 | 0.00 | 0.00 | 97 | 998.1 |
| 20260509120528 | 42 | 273 | 0.0 | 0.0 | 0.00 | 0.00 | 0.00 | 97 | 998.1 |
| 20260509120037 | 41 | 273 | 0.0 | 0.0 | 0.00 | 0.00 | 0.00 | 98 | 998.2 |
| 20260509115543 | 41 | 273 | 0.0 | 0.0 | 0.00 | 0.00 | 0.00 | 98 | 998.2 |
| 20260509115022 | 40 | 273 | 0.0 | 0.0 | 0.00 | 0.00 | 0.00 | 98 | 998.4 |
| 20260509114524 | 40 | 273 | 0.0 | 0.0 | 0.00 | 0.00 | 0.00 | 98 | 998.3 |
| 20260509114035 | 40 | 273 | 0.0 | 0.0 | 0.00 | 0.00 | 0.00 | 98 | 998.4 |
| 20260509113537 | 39 | 273 | 0.0 | 0.0 | 0.00 | 0.00 | 0.00 | 98 | 998.4 |
| 20260509113025 | 39 | 273 | 0.0 | 0.0 | 0.00 | 0.00 | 0.00 | 98 | 998.4 |
| 20260509112535 | 38 | 273 | 0.0 | 0.0 | 0.00 | 0.00 | 0.00 | 98 | 998.3 |
| 20260509112037 | 38 | 273 | 0.0 | 0.0 | 0.00 | 0.00 | 0.00 | 98 | 998.2 |
| 20260509111526 | 37 | 273 | 0.0 | 0.0 | 0.00 | 0.00 | 0.00 | 98 | 998.2 |
| 20260509111038 | 37 | 273 | 0.0 | 0.0 | 0.00 | 0.00 | 0.00 | 98 | 998.2 |
| 20260509110540 | 36 | 273 | 0.0 | 0.0 | 0.00 | 0.00 | 0.00 | 98 | 998.2 |
| 20260509110029 | 36 | 273 | 0.0 | 0.0 | 0.00 | 0.00 | 0.00 | 97 | 998.2 |
| 20260509105530 | 36 | 273 | 0.0 | 0.0 | 0.00 | 0.00 | 0.00 | 97 | 998.2 |
| 20260509105020 | 36 | 273 | 0.0 | 0.0 | 0.00 | 0.00 | 0.00 | 97 | 998.3 |
| 20260509104530 | 36 | 273 | 0.0 | 0.0 | 0.00 | 0.00 | 0.00 | 98 | 998.2 |
| 20260509104032 | 35 | 273 | 0.0 | 0.0 | 0.00 | 0.00 | 0.00 | 98 | 998.3 |
| 20260509103524 | 35 | 273 | 0.0 | 0.0 | 0.00 | 0.00 | 0.00 | 98 | 998.3 |
| 20260509103033 | 35 | 273 | 0.0 | 0.0 | 0.00 | 0.00 | 0.00 | 98 | 998.5 |
| 20260509102535 | 35 | 273 | 0.0 | 0.0 | 0.00 | 0.00 | 0.00 | 98 | 998.4 |
| 20260509102024 | 34 | 273 | 0.0 | 0.0 | 0.00 | 0.00 | 0.00 | 97 | 998.3 |
| 20260509101521 | 34 | 273 | 0.0 | 0.0 | 0.00 | 0.00 | 0.00 | 97 | 998.2 |
| 20260509101032 | 34 | 273 | 0.0 | 0.0 | 0.00 | 0.00 | 0.00 | 97 | 998.3 |